Location: Austin
(30.3000°N, 97.7500°W)
Time: 12:29:42
(UTC-05:00)

Cosmos 405 Rocket - Pass Details

Date: 26 May 2023
Orbit: 475 x 533 km, 81.3° (Epoch: 31 May)

Event Time Altitude Azimuth Distance (km) Brightness Sun altitude
Exits shadow 21:07:54 - 172° (S) 2,676 6.0 -9.0°
Rises 21:07:56 0° 172° (S) 2,659 5.9 -9.0°
Reaches altitude 10° 21:10:09 10° 165° (SSE) 1,775 5.0 -9.4°
Maximum altitude 21:13:51 42° 94° (E) 762 3.1 -10.1°
Drops below altitude 10° 21:17:34 10° 23° (NNE) 1,780 5.5 -10.8°
Sets 21:19:47 0° 16° (NNE) 2,668 6.5 -11.2°
